When you browse on this site, cookies collect data to enhance your experience and personalize the content and advertising you see.
Visit our Privacy Policy to learn more. By continuing to use the site, you agree to this use of cookies and data.
  • In Österreich
  • Länderverzeichnis
  • Für 7 Tage
  • Wassertemperatur
  • Satellitenkarten
  • Wetterkarte
  • News
  • Widgets
  • user-avatar
    Anmelden

    Stündliche Wetter Helenopol

    Heute, 26 Mai, Sonntag

    Zeit Temperatur Niederschläge Wind Luftdruck Luftfeuchtigkeit
    00:00 +8°C° 0 mm 2 m/S 753 mmHg 90%
    01:00 +8°C° 0 mm 2 m/S 753 mmHg 91%
    02:00 +8°C° 0 mm 2 m/S 753 mmHg 92%
    03:00 +7°C° 0 mm 2 m/S 753 mmHg 93%
    04:00 +7°C° 0 mm 2 m/S 753 mmHg 93%
    05:00 +9°C° 0 mm 3 m/S 753 mmHg 89%
    06:00 +10°C° 0 mm 3 m/S 753 mmHg 84%
    07:00 +12°C° 0 mm 4 m/S 753 mmHg 79%
    08:00 +13°C° 0 mm 4 m/S 753 mmHg 75%
    09:00 +14°C° 0 mm 4 m/S 753 mmHg 71%
    10:00 +15°C° 0 mm 4 m/S 752 mmHg 67%
    11:00 +17°C° 0 mm 4 m/S 752 mmHg 63%
    12:00 +19°C° 0 mm 5 m/S 752 mmHg 59%
    13:00 +20°C° 0 mm 5 m/S 751 mmHg 55%
    14:00 +20°C° 0 mm 5 m/S 751 mmHg 56%
    15:00 +21°C° 0 mm 5 m/S 751 mmHg 57%
    16:00 +21°C° 0 mm 5 m/S 750 mmHg 58%
    17:00 +20°C° 0 mm 4 m/S 750 mmHg 63%
    18:00 +19°C° 0 mm 3 m/S 750 mmHg 68%
    19:00 +18°C° 0 mm 2 m/S 750 mmHg 74%
    20:00 +17°C° 0 mm 2 m/S 750 mmHg 75%
    21:00 +16°C° 0 mm 2 m/S 750 mmHg 76%
    22:00 +15°C° 0 mm 2 m/S 750 mmHg 77%
    23:00 +14°C° 0 mm 3 m/S 750 mmHg 78%

    Morgen, 27 Mai, Montag

    Zeit Temperatur Niederschläge Wind Luftdruck Luftfeuchtigkeit
    00:00 +14°C° 0 mm 3 m/S 749 mmHg 78%
    01:00 +14°C° 0 mm 3 m/S 749 mmHg 79%
    02:00 +14°C° 0 mm 3 m/S 749 mmHg 80%
    03:00 +14°C° 0 mm 4 m/S 749 mmHg 82%
    04:00 +13°C° 0 mm 4 m/S 748 mmHg 83%
    05:00 +14°C° 0 mm 4 m/S 748 mmHg 81%
    06:00 +16°C° 0 mm 5 m/S 748 mmHg 79%
    07:00 +17°C° 0 mm 5 m/S 748 mmHg 76%
    08:00 +19°C° 0 mm 5 m/S 748 mmHg 72%
    09:00 +21°C° 0 mm 6 m/S 748 mmHg 68%
    10:00 +22°C° 0 mm 6 m/S 748 mmHg 64%
    11:00 +22°C° 0.6 mm 6 m/S 748 mmHg 65%
    12:00 +23°C° 0.6 mm 6 m/S 748 mmHg 66%
    13:00 +23°C° 0.6 mm 6 m/S 748 mmHg 68%
    14:00 +22°C° 0.8 mm 5 m/S 748 mmHg 69%
    15:00 +22°C° 0.8 mm 4 m/S 748 mmHg 70%
    16:00 +22°C° 0.8 mm 4 m/S 748 mmHg 71%
    17:00 +21°C° 0.1 mm 3 m/S 748 mmHg 73%
    18:00 +20°C° 0.1 mm 3 m/S 748 mmHg 75%
    19:00 +19°C° 0.1 mm 2 m/S 748 mmHg 78%
    20:00 +17°C° 0 mm 3 m/S 749 mmHg 79%
    21:00 +16°C° 0 mm 3 m/S 749 mmHg 80%
    22:00 +13°C° 0 mm 3 m/S 749 mmHg 82%
    23:00 +13°C° 0 mm 3 m/S 749 mmHg 83%

    übermorgen, 28 Mai, Dienstag

    Zeit Temperatur Niederschläge Wind Luftdruck Luftfeuchtigkeit
    00:00 +13°C° 0 mm 3 m/S 748 mmHg 84%
    01:00 +13°C° 0 mm 3 m/S 748 mmHg 86%
    02:00 +12°C° 0.7 mm 4 m/S 748 mmHg 88%
    03:00 +12°C° 0.7 mm 4 m/S 747 mmHg 90%
    04:00 +12°C° 0.7 mm 4 m/S 747 mmHg 93%
    05:00 +12°C° 2.6 mm 4 m/S 746 mmHg 93%
    06:00 +12°C° 2.6 mm 5 m/S 746 mmHg 94%
    07:00 +12°C° 2.6 mm 5 m/S 746 mmHg 94%
    08:00 +10°C° 1.8 mm 5 m/S 746 mmHg 94%
    09:00 +11°C° 1.8 mm 4 m/S 745 mmHg 94%
    10:00 +11°C° 1.8 mm 4 m/S 745 mmHg 94%
    11:00 +10°C° 0.9 mm 5 m/S 745 mmHg 93%
    12:00 +10°C° 0.9 mm 5 m/S 745 mmHg 93%
    13:00 +10°C° 0.9 mm 5 m/S 745 mmHg 93%
    14:00 +10°C° 0.8 mm 5 m/S 745 mmHg 93%
    15:00 +9°C° 0.8 mm 5 m/S 745 mmHg 93%
    16:00 +10°C° 0.8 mm 4 m/S 745 mmHg 94%
    17:00 +10°C° 0.4 mm 4 m/S 746 mmHg 94%
    18:00 +10°C° 0.4 mm 4 m/S 746 mmHg 94%
    19:00 +10°C° 0.4 mm 4 m/S 746 mmHg 94%
    20:00 +10°C° 0 mm 3 m/S 746 mmHg 95%
    21:00 +9°C° 0 mm 3 m/S 747 mmHg 95%
    22:00 +9°C° 0 mm 3 m/S 747 mmHg 96%
    23:00 +9°C° 0 mm 3 m/S 747 mmHg 96%

    29 Mai, Mittwoch

    Zeit Temperatur Niederschläge Wind Luftdruck Luftfeuchtigkeit
    00:00 +8°C° 0 mm 2 m/S 747 mmHg 96%
    01:00 +8°C° 0 mm 2 m/S 748 mmHg 96%
    02:00 +8°C° 0 mm 2 m/S 748 mmHg 95%
    03:00 +9°C° 0 mm 1 m/S 748 mmHg 94%
    04:00 +8°C° 0 mm 1 m/S 748 mmHg 93%
    05:00 +10°C° 0 mm 1 m/S 748 mmHg 90%
    06:00 +11°C° 0 mm 1 m/S 749 mmHg 86%
    07:00 +13°C° 0 mm 2 m/S 749 mmHg 83%
    08:00 +14°C° 0 mm 2 m/S 749 mmHg 80%
    09:00 +15°C° 0 mm 2 m/S 749 mmHg 78%
    10:00 +16°C° 0 mm 3 m/S 749 mmHg 75%
    11:00 +16°C° 0.2 mm 3 m/S 749 mmHg 77%
    12:00 +16°C° 0.2 mm 3 m/S 750 mmHg 78%
    13:00 +16°C° 0.2 mm 3 m/S 750 mmHg 80%
    14:00 +17°C° 0.3 mm 3 m/S 750 mmHg 78%
    15:00 +17°C° 0.3 mm 3 m/S 750 mmHg 77%
    16:00 +17°C° 0.3 mm 3 m/S 751 mmHg 75%
    17:00 +15°C° 0.2 mm 4 m/S 751 mmHg 80%
    18:00 +14°C° 0.2 mm 5 m/S 752 mmHg 85%
    19:00 +13°C° 0.2 mm 5 m/S 752 mmHg 90%
    20:00 +12°C° 0 mm 5 m/S 753 mmHg 90%
    21:00 +10°C° 0 mm 5 m/S 753 mmHg 90%
    22:00 +9°C° 0 mm 5 m/S 754 mmHg 90%
    23:00 +8°C° 0 mm 4 m/S 754 mmHg 90%

    30 Mai, Donnerstag

    Zeit Temperatur Niederschläge Wind Luftdruck Luftfeuchtigkeit
    00:00 +7°C° 0 mm 4 m/S 755 mmHg 89%
    01:00 +7°C° 0 mm 3 m/S 755 mmHg 89%
    02:00 +5°C° 0 mm 3 m/S 756 mmHg 89%
    03:00 +5°C° 0 mm 3 m/S 756 mmHg 90%
    04:00 +4°C° 0 mm 3 m/S 757 mmHg 91%
    05:00 +7°C° 0 mm 3 m/S 757 mmHg 86%
    06:00 +8°C° 0 mm 3 m/S 758 mmHg 82%
    07:00 +10°C° 0 mm 3 m/S 758 mmHg 77%
    08:00 +11°C° 0 mm 3 m/S 758 mmHg 71%
    09:00 +12°C° 0 mm 3 m/S 758 mmHg 65%
    10:00 +14°C° 0 mm 3 m/S 758 mmHg 58%
    11:00 +16°C° 0 mm 2 m/S 758 mmHg 56%
    12:00 +16°C° 0 mm 2 m/S 758 mmHg 54%
    13:00 +17°C° 0 mm 2 m/S 758 mmHg 52%
    14:00 +17°C° 0 mm 2 m/S 758 mmHg 54%
    15:00 +18°C° 0 mm 2 m/S 757 mmHg 55%
    16:00 +18°C° 0 mm 2 m/S 757 mmHg 56%
    17:00 +17°C° 0 mm 2 m/S 757 mmHg 63%
    18:00 +16°C° 0 mm 2 m/S 757 mmHg 70%
    19:00 +14°C° 0 mm 3 m/S 757 mmHg 77%
    20:00 +13°C° 0 mm 3 m/S 757 mmHg 80%
    21:00 +12°C° 0 mm 4 m/S 757 mmHg 82%
    22:00 +11°C° 0 mm 4 m/S 757 mmHg 85%
    23:00 +12°C° 0 mm 4 m/S 757 mmHg 83%

    31 Mai, Freitag

    Zeit Temperatur Niederschläge Wind Luftdruck Luftfeuchtigkeit
    00:00 +12°C° 0 mm 4 m/S 756 mmHg 81%
    01:00 +12°C° 0 mm 4 m/S 756 mmHg 79%
    02:00 +12°C° 0 mm 4 m/S 756 mmHg 79%
    03:00 +12°C° 0 mm 4 m/S 755 mmHg 79%
    04:00 +12°C° 0 mm 5 m/S 755 mmHg 78%
    05:00 +13°C° 0.1 mm 5 m/S 755 mmHg 82%
    06:00 +13°C° 0.1 mm 5 m/S 755 mmHg 86%
    07:00 +13°C° 0.1 mm 5 m/S 755 mmHg 89%
    08:00 +13°C° 0.9 mm 6 m/S 756 mmHg 90%
    09:00 +14°C° 0.9 mm 6 m/S 756 mmHg 91%
    10:00 +14°C° 0.9 mm 6 m/S 757 mmHg 91%
    11:00 +14°C° 0.1 mm 6 m/S 757 mmHg 85%
    12:00 +15°C° 0.1 mm 5 m/S 758 mmHg 78%
    13:00 +15°C° 0.1 mm 5 m/S 759 mmHg 72%
    14:00 +15°C° 0 mm 5 m/S 759 mmHg 64%
    15:00 +16°C° 0 mm 5 m/S 759 mmHg 57%
    16:00 +16°C° 0 mm 5 m/S 760 mmHg 50%
    17:00 +15°C° 0 mm 4 m/S 760 mmHg 55%
    18:00 +14°C° 0 mm 3 m/S 761 mmHg 60%
    19:00 +14°C° 0 mm 2 m/S 761 mmHg 65%
    20:00 +12°C° 0 mm 1 m/S 762 mmHg 65%
    21:00 +11°C° 0 mm 1 m/S 762 mmHg 66%
    22:00 +9°C° 0 mm 1 m/S 762 mmHg 66%
    23:00 +9°C° 0 mm 1 m/S 762 mmHg 67%
    Mehr zeigen